Regional Weather Roundup
Issued by NWS San Angelo, TX

Home | Current Version | Previous Version | Text Only | Print | Product List | Glossary On
Versions: 1 2 3 4 5 6 7 8 9 10 11 12 13 14 15 16 17 18 19 20 21 22 23 24 25 26 27 28 29 30 31 32 33 34 35 36 37 38 39 40 41 42 43 44 45 46 47 48 49 50
000
ASUS44 KSJT 242110
RWRSJT
WEST CENTRAL TEXAS REGIONAL WEATHER ROUNDUP
NATIONAL WEATHER SERVICE SAN ANGELO TX
400 PM CDT SAT JUN 24 2017

NOTE: "FAIR" INDICATES FEW OR NO CLOUDS BELOW 12,000 FEET WITH NO
SIGNIFICANT WEATHER AND/OR OBSTRUCTIONS TO VISIBILITY.

TXZ049-054-064>066-071>073-076>078-098-099-113-114-127-128-139-140-
154-155-168>170-242200
...LOCATIONS ACROSS WEST CENTRAL TEXAS...

CITY           SKY/WX    TMP DP  RH WIND       PRES   REMARKS
SAN ANGELO     NOT AVBL
ABILENE        MOSUNNY   83  66  56 VRB3      30.13F
DYESS AFB      MOSUNNY   82  68  61 NE8       30.12F
JUNCTION       CLOUDY    80  66  62 CALM      30.10F
SWEETWATER     PTSUNNY   84  62  48 NE6       30.18F
BROWNWOOD      NOT AVBL
COLEMAN        PTCLDY    83  64  52 CALM      30.11F
SONORA         SUNNY     82  64  54 SE9G17    30.17F
OZONA          FAIR      84  63  48 SE12      30.15F
BRADY          NOT AVBL
$$

TEXAS PANHANDLE/OKLAHOMA PANHANDLE

CITY           SKY/WX    TMP DP  RH WIND       PRES   REMARKS
AMARILLO       CLOUDY    71  57  61 VRB3      30.26F
BORGER         CLOUDY    73  57  57 S9        30.24F
CANADIAN       MOSUNNY   82  55  39 S8G20     30.19F
DALHART        CLOUDY    70  56  61 S13       30.29F
DUMAS          MOCLDY    70  54  56 S10       30.27F
GUYMON         NOT AVBL
HEREFORD       CLOUDY    68  58  69 S6        30.28F
PAMPA          CLOUDY    77  56  49 SE9G17    30.25F
PERRYTON       CLOUDY    81  52  36 SE13      30.22F
$$

SOUTHERN PANHANDLE/SOUTH PLAINS/ROLLING PLAINS

CITY           SKY/WX    TMP DP  RH WIND       PRES   REMARKS
LUBBOCK        PTSUNNY   81  58  45 SE15G21   30.21F
SNYDER         MOSUNNY   83  63  51 E7        30.17F
CHILDRESS      CLOUDY    72  65  78 VRB3      30.20F
SEMINOLE       PTCLDY    80  61  51 SE7       30.22F
$$

PERMIAN BASIN

CITY           SKY/WX    TMP DP  RH WIND       PRES   REMARKS
MIDLAND        SUNNY     88  60  38 E15G23    30.15F
ODESSA         MOSUNNY   87  60  40 SE10G21   30.17F
WINK           PTSUNNY   88  59  37 MISG      30.12F
$$

FAR WEST/SOUTHWEST MOUNTAINS/TRANS PECOS

CITY           SKY/WX    TMP DP  RH WIND       PRES   REMARKS
ALPINE         PTCLDY    85  55  36 E6G17     30.25F
DRYDEN           N/A     90  65  43 E13       30.08F
EL PASO        SUNNY     93  52  24 E17G26    30.08F
FORT STOCKTON  MOSUNNY   88  62  41 E15G22    30.14F
GUADALUPE PASS SUNNY     77  56  48 NE28G38   30.26F
MARFA          PTSUNNY   84  57  39 NE17G23   30.22F
PECOS          MOCLDY    88  61  41 SE15      30.12F
$$

DALLAS/FORT WORTH METROPLEX

CITY           SKY/WX    TMP DP  RH WIND       PRES   REMARKS
DFW AIRPORT    CLOUDY    83  72  69 E9        30.09S
FTW MEACHAM    MOSUNNY   82  69  64 NE12      30.11R
DAL-EXECUTIVE  CLOUDY    77  71  82 E9        30.10R
GRAND PRAIRIE  CLOUDY    75  68  78 N10       30.11S
ADDISON        CLOUDY    81  70  69 E12G18    30.11R
MESQUITE       PTCLDY    77  70  78 NE8       30.09S
LANCASTER      CLOUDY    77  71  81 E6        30.11R
$$

NORTH CENTRAL TEXAS

CITY           SKY/WX    TMP DP  RH WIND       PRES   REMARKS
SHRMAN/DENISON MOCLDY    80  64  58 E13       30.12F
GAINESVILLE    CLOUDY    80  66  61 NE9       30.14F
BRIDGEPORT     CLOUDY    76  67  73 NE9       30.15S
DENTON         CLOUDY    79  71  76 NE8       30.11S
WAXAHACHIE     CLOUDY    77  71  80 NE3       30.12S
GRANBURY       CLOUDY    80  69  70 NE7G16    30.13R
$$

WESTERN NORTH TEXAS

CITY           SKY/WX    TMP DP  RH WIND       PRES   REMARKS
WICHITA FALLS  PTSUNNY   80  65  59 MISG      30.13F
VERNON         MOCLDY    79  62  55 E3        30.17F
BRECKENRIDGE   CLOUDY    81  65  57 N6        30.13S
COMANCHE       CLOUDY    79  71  76 N9        30.12S
$$

CENTRAL AND SOUTH CENTRAL TEXAS

CITY           SKY/WX    TMP DP  RH WIND       PRES   REMARKS
AUSTIN/BERGSTM CLOUDY    84  68  58 E10       30.02F
WACO           PTSUNNY   81  71  71 NE3       30.08R
HILLSBORO      CLOUDY    79  70  73 E13       30.11R
TEMPLE         LGT RAIN  78  71  79 E6        30.08R
KILLEEN-GRAY   CLOUDY    79  70  73 NE9       30.07R
FORT HOOD      PTSUNNY   78  70  75 NE9       30.06R
GEORGETOWN     SUNNY     79  66  65 SE9G17    30.04F
LAGO VISTA     FAIR      85  69  58 E9        30.06F
SAN MARCOS     SUNNY     81  68  65 E12       30.05F
NEW BRAUNFELS  CLOUDY    82  67  60 NE15      30.02F
RANDOLPH AFB   CLOUDY    81  68  64 E12       30.04F
SAN ANTONIO    CLOUDY    83  65  54 E16G25    30.06S
STINSON        CLOUDY    79  73  82 SE8       30.05R
PLEASANTON     NOT AVBL
LA GRANGE      DRIZZLE   76  74  93 CALM      30.01F
GIDDINGS       CLOUDY    77  68  73 E6        30.04F
$$

EAST TEXAS

CITY           SKY/WX    TMP DP  RH WIND       PRES   REMARKS
PARIS            N/A     80  63  55 NE10      30.12R
CLARKSVILLE    NOT AVBL
TYLER          CLOUDY    82  73  74 N9        30.07F
LONGVIEW       MOSUNNY   82  73  74 E7        30.05F
PALESTINE      CLOUDY    80  72  76 CALM      30.06F
NACOGDOCHES    CLOUDY    86  73  66 MISG      30.03F
$$

TEXAS HILL COUNTRY AND EDWARDS PLATEAU

CITY           SKY/WX    TMP DP  RH WIND       PRES   REMARKS
LLANO          CLOUDY    82  72  69 S7        30.09F
HORSESHOE BAY  FAIR      80  69  70 MISG      30.06F
KERRVILLE      CLOUDY    82  68  61 SE8       30.09F
FREDERICKSBRG  CLOUDY    76  66  71 E3        30.09F
ROCKSPRINGS    CLOUDY    81  64  57 E9        30.15F
HONDO          CLOUDY    84  70  62 SE16      30.07S
UVALDE         CLOUDY    85  68  55 E15G24    30.05F
DEL RIO        PTSUNNY   91  69  48 E10G21    30.01F
$$

SOUTHEAST TEXAS

CITY           SKY/WX    TMP DP  RH WIND       PRES   REMARKS
COLLEGE STN    CLOUDY    79  72  79 SE8       30.03F
CALDWELL       NOT AVBL
CROCKETT       CLOUDY    84  72  65 E3        30.07F
BRENHAM        LGT RAIN  76  73  93 NE3       30.04F
HUNTSVILLE     PTSUNNY   82  69  64 E3        30.04F
CONROE         CLOUDY    80  73  79 N6        30.04F
HOUSTON BUSH   PTSUNNY   82  74  76 NW8       30.04F
HOUSTON HOBBY  CLOUDY    86  73  65 NW10      30.02F
PERLAND        CLOUDY    88  74  63 N7        30.04F
WHARTON        CLOUDY    81  73  75 N9        30.04F
$$

THE UPPER TEXAS COAST

CITY           SKY/WX    TMP DP  RH WIND       PRES   REMARKS
ORANGE         PTCLDY    84  75  73 NW3       30.05S
PORT ARTHUR    PTSUNNY   86  73  65 NW8       30.03S
GALVESTON      CLOUDY    84  77  79 N6        30.03F
ANGLETON       CLOUDY    83  77  82 N3        30.04F
BAY CITY       CLOUDY    84  76  76 CALM      30.03F
$$

TEXAS COASTAL BEND, RIO GRANDE PLAINS DEEP SOUTH TEXAS

CITY           SKY/WX    TMP DP  RH WIND       PRES   REMARKS
VICTORIA       CLOUDY    81  73  76 NE10      30.05F
BEEVILLE       FAIR      81  81  99 E10G16    30.04F
ROCKPORT       CLOUDY    85  72  65 NE12      30.03F
PORT ARANSAS   MOCLDY    82  73  75 N23G29    30.03F
PORT LAVACA    CLOUDY    79  78  97 CALM      30.04F
CORPUS CHRISTI CLOUDY    79  74  84 N10       30.04F
KINGSVILLE NAS TSTM      75  74  96 E5G17     30.02R VSB 3/4
COTULLA        CLOUDY    85  65  51 E16G26    30.00F
LAREDO         CLOUDY    92  70  48 NE26G38   29.95
BROWNSVILLE    MOSUNNY   94  75  54 E17G23    29.94F
PORT ISABEL    SUNNY     91  78  65 E18G25    29.95F
HEBBRONVILLE   TSTM      73  68  85 E14G30    30.02R
MCALLEN        SUNNY    102  71  36 E13G22    29.91F
WESLACO        MOSUNNY   96  73  47 SE16G23   29.91F
FALFURRIAS     CLOUDY    84  74  73 NE12G17   30.00R
EDINBURG       CLOUDY    93  71  48 E15       29.94S
$$




USA.gov is the U.S. government's official web portal to all federal, state and local government web resources and services.